Terug naar catalogus

OPS 4682 DEB

ActiefPO
NORAD 51499·DEBRIS·🇺🇸 United States

Gelanceerd Apr 3, 1965 vanaf Vandenberg Space Force Base

Loading…

Volgende Passages (komende 24 uur)

TLE

VersSource: Space-Track

Epoch: Sep 12, 2026, 02:00 UTC

1 51499U 65027GK  26255.08365609  .00000143  00000-0  49455-3 0  9993
2 51499  90.2588  10.0636 0027150  44.8057 315.5248 12.93337351535223

Volg OPS 4682 DEB in realtime met AllMySat

Download on the App Store